Regional Weather Roundup
Issued by NWS

Home | Current Version | Previous Version | Text Only | Print | Product List | Glossary On
Versions: 1 2 3 4 5 6 7 8 9 10 11 12 13 14 15 16 17 18 19 20 21 22 23 24 25 26 27 28 29 30 31 32 33 34 35 36 37 38 39 40 41 42 43 44 45 46 47 48 49 50
000
ASUS45 KTFX 242210
RWRMT
MONTANA REGIONAL WEATHER ROUNDUP
NATIONAL WEATHER SERVICE GREAT FALLS MT
400 PM MDT WED MAY 24 2017

NOTE: "FAIR" INDICATES FEW OR NO CLOUDS BELOW 12000 FEET WITH NO
SIGNIFICANT WEATHER AND/OR OBSTRUCTIONS TO VISIBILITY.

MTZ001>007-043-242300-
WEST OF THE DIVIDE

CITY           SKY/WX    TMP DP  RH WIND       PRES   REMARKS
KALISPELL      CLOUDY    56  24  29 W16G24    29.56F
MISSOULA       MOSUNNY   60  22  23 W26G41    29.63F
BUTTE          SUNNY     60  11  14 W20G31    29.59S
MULLAN PASS    PTSUNNY   42  20  41 W12G25    29.69F
ANACONDA         N/A     57  10  15 W26G38    29.59S
DEER LODGE       N/A     57  12  17 SW13G21   29.61S
EUREKA           N/A     52  28  40 SW21G28   29.59R
HAMILTON         N/A     57  18  21 W21G33    29.65F
PLAINS           N/A     61  26  26 SW21      29.66F
RONAN            N/A     59  23  25 SW18      29.71S
$$

MTZ008-052>055-242300-
SOUTHWEST MONTANA

CITY           SKY/WX    TMP DP  RH WIND       PRES   REMARKS
BOZEMAN        SUNNY     68  16  13 W30G45    29.45S
DILLON         SUNNY     66  23  19 NW17G29   29.53R
W YELLOWSTONE  SUNNY     66  23  19 SW38G56   29.51F
ENNIS          SUNNY     66  23  19 NW18G30   29.56R
THREE FORKS      N/A     68  15  13 W25       29.53S
TWIN BRIDGES     N/A     66  19  16 W18       29.59R
$$

MTZ009-010-012-014-046-048-049-054-242300-
EAST SLOPES AND CENTRAL MONTANA

CITY           SKY/WX    TMP DP  RH WIND       PRES   REMARKS
CUT BANK       SUNNY     57  18  21 W35G52    29.37S
GREAT FALLS    MOSUNNY   63  17  17 W32G46    29.38F
MALMSTROM AFB  MOSUNNY   63  18  17 SW38G51   29.40S
HELENA         MOSUNNY   65  14  14 W28G41    29.51F
CHOTEAU          N/A     57  19  23 W26G37    29.44R
CONRAD           N/A     60  35  39 W25       29.49R
$$

MTZ011-013-016-021-045-047-050-051-242300-
NORTH CENTRAL MONTANA

CITY           SKY/WX    TMP DP  RH WIND       PRES   REMARKS
HAVRE          CLOUDY    63  13  14 W32G53    29.30R
LEWISTOWN      SUNNY     67  14  13 W32G40    29.39F
N BAR RANCH      N/A     66  12  12 W32G54    29.40R
CHINOOK          N/A     64  16  15 W31G43    29.28R
FORT BENTON      N/A     68  14  12 CALM      29.36F
$$

MTZ017>020-022>027-061-062-242300-
NORTHEAST MONTANA

CITY           SKY/WX    TMP DP  RH WIND       PRES   REMARKS
GLASGOW        CLOUDY    78  18  10 W24G32    29.26R
JORDAN           N/A     71  30  21 W13       29.31S
SIDNEY         PTSUNNY   77  42  28 S14       29.26R
WOLF POINT     LGT RAIN  69  36  29 NW28G45   29.32R
MALTA          SUNNY     73  21  14 W30G38    29.25R
PLENTYWOOD       N/A     66  52  59 W18G25    29.25F
SCOBEY           N/A     68  38  33 W23       29.31R
$$

MTZ028>42-056>058-242300-
SOUTHCENTRAL AND SOUTHEAST MONTANA

CITY           SKY/WX    TMP DP  RH WIND       PRES   REMARKS
BAKER          SUNNY     78  43  28 S32G41    29.28F
BILLINGS       PTSUNNY   71  31  22 N23G32    29.34R
LIVINGSTON     MOSUNNY   69  26  20 NW28G38   29.43F
MILES CITY     PTSUNNY   74  56  53 N22       29.27R
BIG TIMBER     PTSUNNY   70  27  19 W23G36    29.43S
EKALAKA          N/A     76  44  31 SE18      29.36F
FORSYTH          N/A     73  43  33 N13G23    29.29R
LAUREL           N/A     70  38  31 NW9       29.41R
ROUNDUP          N/A     70  26  19 W7        29.35R
$$

REGIONAL REPORTS...DAKOTAS

CITY           SKY/WX    TMP DP  RH WIND       PRES   REMARKS
WILLISTON      PTSUNNY   77  41  27 S13G28    29.27F
MINOT          SUNNY     73  35  25 SE22G38   29.39F
DICKINSON      SUNNY     72  35  25 S30G39    29.34F
BEACH            N/A     73  39  29 S26G40    29.31F
TIOGA            N/A     72  36  26 S30G39    29.31F
WATFORD CITY     N/A     75  37  25 S29G38    29.26F
BISMARCK       SUNNY     71  40  32 S24G35    29.47F
GRAND FORKS    PTSUNNY   68  42  38 SE22G28   29.63F
FARGO          CLOUDY    66  42  41 S16G24    29.65F
BUFFALO SD       N/A     76  43  30 SE32G41   29.28F
RAPID CITY     SUNNY     77  47  34 S23G31    29.43F
$$

REGIONAL REPORTS...WYOMING/IDAHO/WASHINGTON

CITY           SKY/WX    TMP DP  RH WIND       PRES   REMARKS
GILLETTE       SUNNY     80  43  26 SW14G22   29.37F
SHERIDAN       SUNNY     78  45  30 SW9       29.29F
BUFFALO WY     PTSUNNY   80  36  20 VRB3      29.39F
CODY           SUNNY     79  27  14 W13G22    29.41F
YELLOWSTONE LA   N/A     59  26  28 SW13G30   29.66F
IDAHO FALLS    MOSUNNY   74  33  22 SW33G46   29.57F
SALMON         SUNNY     66  16  14 NW22G33   29.54R
BOISE          SUNNY     72  21  14 N13G28    29.68F
SPOKANE        PTSUNNY   62  25  24 W24G33    29.72F
$$

REGIONAL REPORTS...ALBERTA

CITY           SKY/WX    TMP DP  RH WIND       PRES   REMARKS
CALGARY        LGT RAIN  37  36  93 NW24G37   29.32R FOG     WCI  26
LETHBRIDGE     PTSUNNY   57  23  26 W37G45    29.30R
MEDICINE HAT   LGT RAIN  57  36  44 W23G30    29.22S
WATERTON GATE    N/A     50  21  32 W35G53      N/A
MILK RIVER       N/A     59  23  25 W36G47      N/A
ONEFOUR          N/A     61  19  20 W29G41      N/A
$$

REGIONAL REPORTS...SASKATCHEWAN

CITY           SKY/WX    TMP DP  RH WIND       PRES   REMARKS
SWIFT CURRENT  SUNNY     63  27  25 W24G40    29.20R
REGINA         LGT RAIN  61  48  63 S22G28    29.24R
SASKATOON      PTSUNNY   64  45  48 W18G25    29.13R
CYPRESS HILLS    N/A     52  18  25 W16G29      N/A
VAL MARIE        N/A     70  16  12 W31G41      N/A
ROCKGLEN         N/A     66  16  14 W17G28      N/A
ASSINIBOIA       N/A     52  50  93 N25G43      N/A
$$



USA.gov is the U.S. government's official web portal to all federal, state and local government web resources and services.